When you browse on this site, cookies collect data to enhance your experience and personalize the content and advertising you see.
Visit our Privacy Policy to learn more. By continuing to use the site, you agree to this use of cookies and data.
  • In Lithuania
  • List of Countries
  • For 7 days
  • Water Temperature
  • Weather Map
  • Weather Widgets
  • user-avatar
    Login

    Hourly Weather Sydney

    Today, 21 October, Monday

    Time Temperature Precipitation Wind Pressure Humidity
    00:00 +14°C° 0 mm 1 mps 768 mmHg 66%
    01:00 +14°C° 0 mm 1 mps 768 mmHg 68%
    02:00 +13°C° 0 mm 1 mps 768 mmHg 69%
    03:00 +13°C° 0 mm 1 mps 768 mmHg 71%
    04:00 +12°C° 0 mm 2 mps 768 mmHg 73%
    05:00 +14°C° 0 mm 2 mps 768 mmHg 69%
    06:00 +15°C° 0 mm 2 mps 769 mmHg 64%
    07:00 +16°C° 0 mm 2 mps 769 mmHg 60%
    08:00 +18°C° 0 mm 2 mps 769 mmHg 53%
    09:00 +21°C° 0 mm 2 mps 769 mmHg 46%
    10:00 +24°C° 0 mm 2 mps 769 mmHg 39%
    11:00 +25°C° 0 mm 2 mps 768 mmHg 36%
    12:00 +27°C° 0 mm 3 mps 768 mmHg 32%
    13:00 +28°C° 0 mm 4 mps 767 mmHg 29%
    14:00 +27°C° 0 mm 4 mps 767 mmHg 34%
    15:00 +26°C° 0 mm 4 mps 767 mmHg 38%
    16:00 +23°C° 0 mm 4 mps 767 mmHg 43%
    17:00 +21°C° 0 mm 4 mps 767 mmHg 50%
    18:00 +20°C° 0 mm 3 mps 768 mmHg 58%
    19:00 +18°C° 0 mm 2 mps 768 mmHg 65%
    20:00 +17°C° 0 mm 2 mps 768 mmHg 68%
    21:00 +16°C° 0 mm 1 mps 769 mmHg 72%
    22:00 +16°C° 0 mm 1 mps 769 mmHg 75%
    23:00 +15°C° 0 mm 1 mps 769 mmHg 77%

    Tomorrow, 22 October, Tuesday

    Time Temperature Precipitation Wind Pressure Humidity
    00:00 +15°C° 0 mm 1 mps 768 mmHg 80%
    01:00 +14°C° 0 mm 1 mps 768 mmHg 82%
    02:00 +14°C° 0 mm 1 mps 768 mmHg 82%
    03:00 +14°C° 0 mm 1 mps 768 mmHg 83%
    04:00 +13°C° 0 mm 2 mps 768 mmHg 84%
    05:00 +15°C° 0 mm 2 mps 768 mmHg 78%
    06:00 +16°C° 0 mm 2 mps 768 mmHg 72%
    07:00 +17°C° 0 mm 2 mps 768 mmHg 66%
    08:00 +20°C° 0 mm 2 mps 768 mmHg 54%
    09:00 +24°C° 0 mm 3 mps 768 mmHg 42%
    10:00 +26°C° 0 mm 3 mps 768 mmHg 30%
    11:00 +27°C° 0 mm 4 mps 767 mmHg 30%
    12:00 +28°C° 0 mm 5 mps 767 mmHg 30%
    13:00 +29°C° 0 mm 5 mps 766 mmHg 30%
    14:00 +28°C° 0 mm 6 mps 766 mmHg 34%
    15:00 +27°C° 0 mm 6 mps 765 mmHg 38%
    16:00 +26°C° 0 mm 6 mps 765 mmHg 42%
    17:00 +23°C° 0 mm 5 mps 765 mmHg 52%
    18:00 +21°C° 0 mm 5 mps 766 mmHg 62%
    19:00 +19°C° 0 mm 4 mps 767 mmHg 71%
    20:00 +18°C° 0 mm 4 mps 767 mmHg 75%
    21:00 +18°C° 0 mm 3 mps 767 mmHg 79%
    22:00 +17°C° 0 mm 3 mps 768 mmHg 83%
    23:00 +17°C° 0 mm 2 mps 767 mmHg 84%

    Day after tomorrow, 23 October, Wednesday

    Time Temperature Precipitation Wind Pressure Humidity
    00:00 +17°C° 0 mm 2 mps 767 mmHg 86%
    01:00 +16°C° 0 mm 2 mps 767 mmHg 87%
    02:00 +16°C° 0 mm 2 mps 766 mmHg 88%
    03:00 +16°C° 0 mm 2 mps 766 mmHg 89%
    04:00 +15°C° 0 mm 2 mps 766 mmHg 90%
    05:00 +16°C° 0 mm 2 mps 766 mmHg 85%
    06:00 +17°C° 0 mm 2 mps 766 mmHg 81%
    07:00 +18°C° 0 mm 2 mps 766 mmHg 76%
    08:00 +21°C° 0 mm 3 mps 766 mmHg 63%
    09:00 +25°C° 0 mm 3 mps 766 mmHg 51%
    10:00 +28°C° 0 mm 4 mps 765 mmHg 38%
    11:00 +29°C° 0 mm 4 mps 765 mmHg 35%
    12:00 +32°C° 0 mm 5 mps 764 mmHg 32%
    13:00 +33°C° 0 mm 5 mps 763 mmHg 28%
    14:00 +32°C° 0 mm 5 mps 763 mmHg 33%
    15:00 +30°C° 0 mm 6 mps 762 mmHg 37%
    16:00 +28°C° 0 mm 6 mps 761 mmHg 42%
    17:00 +27°C° 0 mm 5 mps 762 mmHg 49%
    18:00 +25°C° 0 mm 4 mps 762 mmHg 56%
    19:00 +22°C° 0 mm 4 mps 762 mmHg 63%
    20:00 +22°C° 0 mm 3 mps 762 mmHg 63%
    21:00 +21°C° 0 mm 2 mps 762 mmHg 64%
    22:00 +21°C° 0 mm 2 mps 762 mmHg 64%
    23:00 +20°C° 0 mm 2 mps 762 mmHg 65%

    24 October, Thursday

    Time Temperature Precipitation Wind Pressure Humidity
    00:00 +19°C° 0 mm 2 mps 762 mmHg 65%
    01:00 +19°C° 0 mm 2 mps 762 mmHg 65%
    02:00 +18°C° 0 mm 2 mps 762 mmHg 65%
    03:00 +18°C° 0 mm 2 mps 762 mmHg 64%
    04:00 +18°C° 0 mm 2 mps 762 mmHg 64%
    05:00 +19°C° 0 mm 2 mps 762 mmHg 58%
    06:00 +21°C° 0 mm 1 mps 762 mmHg 52%
    07:00 +22°C° 0 mm 1 mps 762 mmHg 46%
    08:00 +26°C° 0 mm 1 mps 762 mmHg 38%
    09:00 +29°C° 0 mm 1 mps 762 mmHg 31%
    10:00 +32°C° 0 mm 1 mps 762 mmHg 24%
    11:00 +32°C° 0 mm 2 mps 762 mmHg 24%
    12:00 +32°C° 0 mm 2 mps 761 mmHg 24%
    13:00 +34°C° 0 mm 3 mps 761 mmHg 24%
    14:00 +33°C° 0 mm 3 mps 760 mmHg 27%
    15:00 +31°C° 0 mm 3 mps 760 mmHg 29%
    16:00 +30°C° 0 mm 3 mps 759 mmHg 32%
    17:00 +28°C° 0 mm 3 mps 760 mmHg 40%
    18:00 +26°C° 0 mm 3 mps 760 mmHg 47%
    19:00 +22°C° 0 mm 3 mps 760 mmHg 55%
    20:00 +22°C° 0 mm 3 mps 761 mmHg 57%
    21:00 +21°C° 0 mm 3 mps 761 mmHg 59%
    22:00 +21°C° 0 mm 3 mps 761 mmHg 61%
    23:00 +20°C° 0 mm 3 mps 760 mmHg 62%

    25 October, Friday

    Time Temperature Precipitation Wind Pressure Humidity
    00:00 +20°C° 0 mm 3 mps 760 mmHg 64%
    01:00 +19°C° 0 mm 3 mps 759 mmHg 65%
    02:00 +19°C° 0 mm 3 mps 759 mmHg 62%
    03:00 +19°C° 0 mm 3 mps 759 mmHg 58%
    04:00 +19°C° 0 mm 3 mps 759 mmHg 54%
    05:00 +20°C° 0 mm 3 mps 759 mmHg 49%
    06:00 +22°C° 0 mm 3 mps 759 mmHg 43%
    07:00 +23°C° 0 mm 4 mps 759 mmHg 37%
    08:00 +28°C° 0 mm 4 mps 758 mmHg 31%
    09:00 +32°C° 0 mm 4 mps 758 mmHg 24%
    10:00 +36°C° 0 mm 5 mps 758 mmHg 17%
    11:00 +37°C° 0 mm 5 mps 757 mmHg 16%
    12:00 +37°C° 0 mm 5 mps 756 mmHg 15%
    13:00 +39°C° 0 mm 6 mps 756 mmHg 14%
    14:00 +39°C° 0 mm 6 mps 755 mmHg 15%
    15:00 +39°C° 0 mm 6 mps 755 mmHg 15%
    16:00 +38°C° 0 mm 6 mps 754 mmHg 15%
    17:00 +35°C° 0 mm 6 mps 754 mmHg 18%
    18:00 +33°C° 0 mm 6 mps 754 mmHg 21%
    19:00 +30°C° 0 mm 6 mps 754 mmHg 24%
    20:00 +30°C° 0 mm 6 mps 754 mmHg 25%
    21:00 +29°C° 0 mm 6 mps 754 mmHg 26%
    22:00 +28°C° 0 mm 5 mps 754 mmHg 28%
    23:00 +27°C° 0 mm 5 mps 753 mmHg 29%

    26 October, Saturday

    Time Temperature Precipitation Wind Pressure Humidity
    00:00 +26°C° 0 mm 5 mps 752 mmHg 30%
    01:00 +25°C° 0 mm 5 mps 752 mmHg 31%
    02:00 +26°C° 0 mm 5 mps 752 mmHg 30%
    03:00 +26°C° 0 mm 6 mps 752 mmHg 29%
    04:00 +26°C° 0 mm 6 mps 752 mmHg 28%
    05:00 +26°C° 0 mm 6 mps 752 mmHg 29%
    06:00 +26°C° 0 mm 6 mps 752 mmHg 31%
    07:00 +26°C° 0 mm 5 mps 753 mmHg 33%
    08:00 +28°C° 0 mm 5 mps 752 mmHg 31%
    09:00 +29°C° 0 mm 5 mps 752 mmHg 30%
    10:00 +32°C° 0 mm 5 mps 752 mmHg 28%
    11:00 +33°C° 0 mm 5 mps 752 mmHg 23%
    12:00 +34°C° 0 mm 5 mps 752 mmHg 18%
    13:00 +35°C° 0 mm 5 mps 752 mmHg 13%
    14:00 +34°C° 0 mm 5 mps 752 mmHg 13%
    15:00 +33°C° 0 mm 5 mps 752 mmHg 13%
    16:00 +30°C° 0 mm 4 mps 752 mmHg 13%
    17:00 +28°C° 0 mm 5 mps 753 mmHg 17%
    18:00 +26°C° 0 mm 6 mps 754 mmHg 20%
    19:00 +22°C° 0 mm 7 mps 755 mmHg 24%
    20:00 +21°C° 0 mm 7 mps 757 mmHg 26%
    21:00 +18°C° 0 mm 8 mps 758 mmHg 28%
    22:00 +17°C° 0 mm 8 mps 759 mmHg 31%
    23:00 +16°C° 0 mm 8 mps 759 mmHg 34%
    Show more